[[{"header":{"parameterUnit":"m.s-1","parameterCategory":1,"la1":30.2991,"la2":30.254,"lo1":-89.0895,"lo2":-89.0444,"dy":0.0017,"dx":0.0017,"nx":28,"ny":28,"refTime":"2025-06-05T21:00:00:Z","depth":0,"parameterNumber":2,"parameterNumberName":"U-component_of_WINDS"},"data":[0,0,0,0,0,0,0,0,0,0,0,0,0,0,0,0,0,0,0,0,0,0,0,0,0,0,0,0,0,0,0,0,0,0,0,0,0,0,0,0,0,0,0,0,0,0,0,0,0,0,0,0,0,0,0,0,0,0,4.6192,4.6193,0,4.6285,4.6286,4.6287,4.6211,4.6207,4.6204,4.6201,4.6296,4.6302,4.6307,0,0,0,0,0,0,0,0,0,0,0,0,0,4.5944,4.5949,4.6192,4.6193,4.6194,4.6285,4.6286,4.6288,4.6211,4.6207,4.6203,4.62,4.6294,4.6301,4.6308,0,0,0,0,0,0,0,0,0,0,0,0,0,4.6046,4.5951,4.6191,4.6167,4.6165,4.6285,4.6286,4.6288,4.6212,4.6207,4.6202,4.6198,4.6292,4.63,4.6308,4.6457,0,0,4.6334,4.6337,0,0,0,0,0,0,0,0,4.604,4.6055,4.6169,4.6169,4.6167,4.6231,4.6234,4.6345,4.6213,4.6194,4.6201,4.6195,4.6278,4.6288,4.6316,4.6461,4.6465,4.6335,4.634,4.6343,4.6346,0,0,0,0,0,0,0,4.6033,4.6051,4.6228,4.6171,4.617,4.615,4.6159,4.6254,4.6262,4.6196,4.619,4.6202,4.6277,4.6308,4.6317,4.6467,4.6334,4.6342,4.6347,4.635,4.6734,4.6739,0,0,0,0,0,0,4.6029,4.6045,4.6225,4.6231,4.6091,4.6159,4.6169,4.6216,4.6261,4.6263,4.6206,4.6199,4.6296,4.6308,4.632,4.6493,4.6343,4.6351,4.6356,4.6729,4.6735,4.6741,0,0,0,0,0,0,4.6024,4.6046,4.6222,4.6137,4.6158,4.6168,4.6221,4.622,4.6251,4.6269,4.627,4.6237,4.6293,4.6309,4.6422,4.6495,4.6355,4.6362,4.6723,4.6731,4.6738,4.6842,0,0,0,0,0,0,4.6017,4.6045,4.6102,4.6139,4.6163,4.6323,4.6226,4.6225,4.6265,4.6256,4.6298,4.63,4.629,4.641,4.6431,4.6504,4.6369,4.6716,4.6726,4.6736,4.6832,4.6853,4.687,0,0,0,0,0,4.6009,4.6128,4.6105,4.6127,4.6234,4.6328,4.6341,4.6327,4.6272,4.6328,4.634,4.6299,4.6485,4.6423,4.6445,4.6522,4.6711,4.6724,4.6735,4.6824,4.6849,4.687,0,0,0,0,0,0,4.6099,4.6132,4.6107,4.6242,4.6283,4.6314,4.6385,4.6355,4.6412,4.64,4.6381,4.6391,4.651,4.6528,4.6458,4.6666,4.6589,4.6606,4.6649,4.6673,4.6692,4.6683,4.6376,0,0,0,0,0,4.6134,4.6208,4.6233,4.635,4.6371,4.6375,4.6415,4.6401,4.6442,4.6459,4.6479,4.652,4.6587,4.6632,4.6695,4.6836,4.6842,4.69,4.6919,4.6934,4.6948,4.702,4.7044,4.6779,4.6779,4.6779,0,0,4.6208,4.6236,4.6284,4.6368,4.6398,4.6473,4.639,4.6474,4.6529,4.6472,4.6578,4.6595,4.664,4.6766,4.6823,4.6785,4.7023,4.6949,4.6962,4.6967,4.7034,4.7059,4.7082,4.6787,4.6786,4.6785,0,0,4.638,4.6411,4.6509,4.654,4.6586,4.6588,4.6612,4.6648,4.6657,4.6765,4.6722,4.6787,4.6905,4.6937,4.6969,4.7152,4.7115,4.7174,4.7271,4.7342,4.7362,4.7381,4.7442,4.7465,4.7188,4.7189,4.7189,0,4.6466,4.6578,4.6563,4.6649,4.6686,4.6639,4.6737,4.6768,4.6833,4.6859,4.6816,4.696,4.6987,4.7119,4.7163,4.7192,4.7216,4.7167,4.7361,4.7379,4.7396,4.7454,4.7478,4.7195,4.7194,4.7194,4.7193,0,4.6679,4.6758,4.6832,4.6894,4.694,4.7032,4.703,4.7078,4.7061,4.7066,4.7175,4.7206,4.7273,4.7304,4.7288,4.7433,4.7407,4.7364,4.7285,4.7428,4.7482,4.7504,4.7204,4.7202,4.72,4.7198,0,0,4.6908,4.6961,4.6988,4.7014,4.7061,4.7121,4.7211,4.7276,4.7316,4.7363,4.7434,4.7535,4.7493,4.753,4.7517,4.758,4.7718,4.7527,4.7528,4.7558,4.7875,4.7904,4.793,4.7695,4.77,4.7703,4.7869,0,4.7078,4.7233,4.7222,4.7367,4.7437,4.7393,4.747,4.7507,4.7515,4.7575,4.7584,4.7654,4.7597,4.7617,4.7678,4.7688,4.778,4.7677,4.7759,4.7762,4.7745,4.7959,4.7991,4.8146,4.7891,4.7894,4.7897,0,4.7297,4.735,4.7502,4.7536,4.7565,4.7635,4.7692,4.7752,4.7792,4.7793,4.7833,4.781,4.7898,4.7821,4.794,4.787,4.7903,4.7914,4.7919,4.7923,4.7835,4.7964,4.8196,4.8217,4.7931,4.7928,4.7926,0,4.7443,4.7553,4.7657,4.7682,4.7726,4.7775,4.7795,4.7831,4.787,4.7921,4.7945,4.8007,4.8039,4.8086,4.8079,4.8024,4.8199,4.8122,4.82,4.82,4.8235,4.8232,4.8471,4.8265,4.8265,4.8264,4.8264,0,4.7632,4.7725,4.7723,4.7786,4.7889,4.7876,4.7978,4.7993,4.8024,4.8089,4.8056,4.8117,4.8106,4.8167,4.8163,4.826,4.8276,4.8277,4.8274,4.8278,4.8277,4.8296,4.8283,4.827,4.8269,4.8268,4.8267,0,4.781,4.7813,4.7922,4.7955,4.7965,4.8039,4.8066,4.8126,4.8131,4.8213,4.8232,4.824,4.831,4.8309,4.8389,4.8385,4.8503,4.849,4.8489,4.8484,4.856,4.8551,4.8816,4.8848,4.8626,4.8628,4.863,0,4.7928,4.7999,4.8039,4.8079,4.8103,4.817,4.8209,4.8199,4.8241,4.8292,4.8344,4.8411,4.8463,4.8576,4.8589,4.8649,4.8634,4.8723,4.8642,4.8643,4.8629,4.8623,4.8628,4.8737,4.8739,4.8741,4.8743,0,4.8135,4.8133,4.8191,4.825,4.8298,4.8344,4.8387,4.8422,4.8416,4.8465,4.8536,4.8576,4.8657,4.8722,4.878,4.88,4.8769,4.8769,4.8789,4.8791,4.8785,4.8784,4.8526,4.8762,4.876,4.8758,4.8757,4.8757,4.8283,4.8343,4.8379,4.8445,4.8476,4.8516,4.8572,4.8585,4.8644,4.8708,4.8699,4.8777,4.8814,4.8888,4.8913,4.8972,4.8941,4.8972,4.8978,4.8985,4.8991,4.878,4.8984,4.8983,4.8983,4.8982,4.8982,0,4.8484,4.8506,4.8567,4.8626,4.8678,4.8647,4.8692,4.8736,4.8805,4.8842,4.8894,4.8974,4.9037,4.9055,4.9115,4.9159,4.9147,4.9175,4.9169,4.9173,4.9018,4.8992,4.9184,4.9184,4.9184,4.9184,4.9184,4.9184,4.8595,4.8692,4.8694,4.8806,4.8827,4.8903,4.8931,4.8967,4.8995,4.9086,4.9138,4.915,4.9178,4.924,4.9296,4.93,4.9321,4.9354,4.9352,4.9205,4.9185,4.9165,4.9141,4.936,4.9361,4.9501,4.9503,4.9504]},{"header":{"parameterUnit":"m.s-1","parameterCategory":1,"la1":30.2991,"la2":30.254,"lo1":-89.0895,"lo2":-89.0444,"dy":0.0017,"dx":0.0017,"nx":28,"ny":28,"refTime":"2025-06-05T21:00:00:Z","depth":0,"parameterNumber":3,"parameterNumberName":"V-component_of_WINDS"},"data":[0,0,0,0,0,0,0,0,0,0,0,0,0,0,0,0,0,0,0,0,0,0,0,0,0,0,0,0,0,0,0,0,0,0,0,0,0,0,0,0,0,0,0,0,0,0,0,0,0,0,0,0,0,0,0,0,0,0,4.1803,4.1805,0,4.1951,4.1952,4.1954,4.1932,4.1929,4.1927,4.1925,4.2074,4.2081,4.2087,0,0,0,0,0,0,0,0,0,0,0,0,0,4.15,4.1506,4.1803,4.1805,4.1807,4.195,4.1952,4.1954,4.1932,4.1929,4.1926,4.1923,4.2072,4.208,4.2087,0,0,0,0,0,0,0,0,0,0,0,0,0,4.1638,4.1507,4.1803,4.1813,4.1816,4.195,4.1952,4.1955,4.1933,4.1929,4.1926,4.1922,4.207,4.2079,4.2088,4.2222,0,0,4.2117,4.2121,0,0,0,0,0,0,0,0,4.163,4.1649,4.181,4.1813,4.1816,4.1919,4.19,4.2044,4.1934,4.1888,4.1925,4.192,4.2026,4.2039,4.2074,4.2229,4.2235,4.2118,4.2124,4.2128,4.2131,0,0,0,0,0,0,0,4.1621,4.1643,4.1861,4.1812,4.1816,4.181,4.1825,4.1928,4.1976,4.1892,4.1891,4.1909,4.2027,4.2065,4.2078,4.2237,4.2118,4.2126,4.2132,4.2136,4.2505,4.2509,0,0,0,0,0,0,4.1608,4.1635,4.1857,4.1866,4.1712,4.1818,4.1835,4.189,4.1975,4.1984,4.1912,4.1907,4.2051,4.2067,4.2083,4.2243,4.2128,4.2137,4.2142,4.2501,4.2506,4.251,0,0,0,0,0,0,4.1602,4.1628,4.1851,4.175,4.1778,4.1827,4.1888,4.1895,4.1933,4.199,4.1998,4.1943,4.2049,4.207,4.2187,4.2247,4.2141,4.215,4.2496,4.2503,4.2508,4.2564,0,0,0,0,0,0,4.1593,4.1626,4.1678,4.1751,4.1783,4.1953,4.1892,4.19,4.195,4.1945,4.2021,4.203,4.2047,4.2173,4.2196,4.2259,4.2157,4.2491,4.2499,4.2506,4.2557,4.2571,4.2584,0,0,0,0,0,4.1583,4.1688,4.1681,4.1708,4.1849,4.1957,4.1975,4.1993,4.1955,4.2007,4.2043,4.2028,4.2237,4.2185,4.2211,4.2277,4.2487,4.2497,4.2506,4.2551,4.2569,4.2583,0,0,0,0,0,0,4.1621,4.1698,4.1691,4.1824,4.1884,4.1953,4.2019,4.2012,4.2084,4.2076,4.2095,4.2113,4.2231,4.2266,4.2206,4.2409,4.2357,4.2372,4.2382,4.2399,4.2412,4.2401,4.2165,0,0,0,0,0,4.1645,4.1726,4.1789,4.19,4.1931,4.197,4.2017,4.2026,4.2089,4.2114,4.2159,4.222,4.2299,4.2351,4.2428,4.2562,4.2577,4.262,4.2633,4.2644,4.2657,4.2728,4.2747,4.2541,4.2541,4.2541,0,0,4.1695,4.1747,4.1798,4.1909,4.1957,4.2039,4.1991,4.2082,4.2143,4.2128,4.2241,4.2276,4.2345,4.247,4.2528,4.2503,4.2717,4.2656,4.2664,4.2671,4.2739,4.2759,4.2776,4.2547,4.2546,4.2545,0,0,4.1829,4.1877,4.1974,4.2022,4.2095,4.212,4.2143,4.2213,4.2236,4.2349,4.2339,4.2412,4.2549,4.2598,4.2641,4.2791,4.2779,4.2815,4.2885,4.2954,4.297,4.2985,4.3036,4.3055,4.2828,4.2828,4.2828,0,4.1882,4.2007,4.2024,4.2115,4.2164,4.2154,4.2251,4.2297,4.2391,4.2424,4.2395,4.2565,4.2611,4.2747,4.2783,4.2819,4.2845,4.2807,4.2967,4.2981,4.2995,4.3044,4.3064,4.2832,4.2831,4.2831,4.283,0,4.2068,4.2154,4.2224,4.2314,4.237,4.2464,4.2494,4.2549,4.2552,4.258,4.2694,4.2749,4.2836,4.2869,4.2873,4.3005,4.2987,4.2962,4.2909,4.3018,4.3065,4.3084,4.2837,4.2836,4.2835,4.2834,0,0,4.223,4.2328,4.2353,4.2393,4.2471,4.2538,4.263,4.2715,4.276,4.2825,4.2902,4.3017,4.2994,4.3043,4.3052,4.3113,4.3226,4.3081,4.3083,4.3105,4.3372,4.3389,4.3411,4.3219,4.3222,4.3225,4.3366,0,4.237,4.2533,4.2551,4.2696,4.2776,4.2766,4.2846,4.2903,4.293,4.3001,4.3031,4.3112,4.3076,4.3105,4.3165,4.32,4.328,4.319,4.3289,4.3292,4.3271,4.3436,4.3455,4.3584,4.3384,4.3387,4.339,0,4.2555,4.2624,4.2778,4.2843,4.2877,4.2949,4.3026,4.3095,4.3157,4.3173,4.3226,4.3228,4.3321,4.3265,4.3393,4.3332,4.3373,4.3396,4.3401,4.341,4.3347,4.3448,4.3627,4.3645,4.3419,4.3417,4.3414,0,4.2656,4.2788,4.2896,4.2931,4.3011,4.3061,4.3096,4.3155,4.3204,4.3272,4.3303,4.3381,4.3423,4.3482,4.3504,4.3461,4.363,4.3577,4.3645,4.3644,4.368,4.3677,4.3866,4.3709,4.3708,4.3708,4.3708,0,4.281,4.2903,4.2942,4.3009,4.3113,4.3131,4.3233,4.3266,4.3319,4.339,4.3387,4.3454,4.3479,4.355,4.3567,4.3669,4.3689,4.3703,4.3706,4.3703,4.3701,4.373,4.3721,4.3713,4.3712,4.3711,4.371,0,4.294,4.297,4.3087,4.3152,4.3171,4.3244,4.33,4.3363,4.339,4.348,4.3502,4.3544,4.3627,4.3654,4.3755,4.3766,4.3884,4.3881,4.3863,4.3864,4.3929,4.3922,4.4143,4.4172,4.3996,4.3998,4.3999,0,4.3035,4.3107,4.318,4.3228,4.3265,4.3342,4.3392,4.3412,4.3464,4.354,4.3593,4.3676,4.3743,4.3875,4.3913,4.399,4.3987,4.4058,4.3998,4.3991,4.3986,4.3981,4.3987,4.407,4.4071,4.4073,4.4074,0,4.3201,4.3212,4.3284,4.3361,4.342,4.3481,4.354,4.3579,4.3608,4.3666,4.3751,4.3803,4.3905,4.3986,4.4063,4.4098,4.4091,4.4093,4.4112,4.4109,4.4095,4.4102,4.3893,4.4088,4.4086,4.4085,4.4085,4.4084,4.3316,4.3378,4.3439,4.3518,4.3565,4.362,4.3682,4.3716,4.3787,4.3872,4.3879,4.397,4.4029,4.4132,4.4171,4.4241,4.4221,4.425,4.4257,4.4263,4.4267,4.4085,4.4256,4.4255,4.4255,4.4255,4.4255,0,4.348,4.3518,4.3591,4.3674,4.3736,4.3724,4.3788,4.384,4.3921,4.3976,4.4042,4.4138,4.4216,4.426,4.4338,4.4385,4.4384,4.4405,4.4401,4.4409,4.4282,4.4257,4.4405,4.4405,4.4405,4.4405,4.4405,4.4405,4.3572,4.3677,4.3695,4.3821,4.3859,4.3948,4.3985,4.4036,4.408,4.4188,4.4252,4.4281,4.4331,4.4412,4.4482,4.4493,4.4521,4.4544,4.4553,4.4433,4.4418,4.4403,4.4379,4.4551,4.4551,4.4673,4.4674,4.4675]}]]